Weather in Chudniv

Ukraine / Zhytomyr Region     50˚03′09″N   28˚07′06″E
temp.,
°C
wind,
m/s
gust,
m/s
humid.,
%
clouds,
%
prec.,
mm/h
press.,
hPa
HPBL,
m
2 december, wed
wed223:00−4˚ne369273 0.0 1028242
02:00−3˚nne349576 0.2 1028200
05:00−3˚ne2597100 0.2 1027257
08:00−3˚ne239894 0.3 102777
11:00−1˚e238781 0.1 1027319
14:00ese238290 0.1 1026443
17:00−1˚ese2384100 0.0 1026151
20:00−1˚ese3486100 0.1 1025209
3 december, thu
thu323:00−2˚ese3591100 0.0 1025162
02:00−2˚se239589 0.0 102554
05:00−3˚se35951 0.0 1024100
08:00−2˚se379744 0.0 1024166
11:00+1˚sse598494 0.0 1023717
14:00+2˚sse598497 0.0 1023582
17:00+1˚se41088100 0.0 1021444
20:00+1˚se51289100 0.0 1021480
4 december, fri
fri423:00+1˚se6129295 0.0 1020413
02:00+3˚se6139498 0.0 1019595
05:00+3˚sse71291100 0.0 1018625
08:00+2˚sse7169069 0.0 1018516
11:00+5˚se8168964 0.0 1018885
14:00+6˚se8168682 0.0 1016743
17:00+6˚se91779100 0.0 1016725
20:00+5˚se8168294 0.0 1018665
5 december, sat
sat523:00+5˚se81586100 0.0 1019658
02:00+6˚se81487100 0.0 1019663
05:00+6˚sse71489100 0.0 1019579
08:00+5˚sse71289100 0.0 1020673
11:00+5˚sse81287100 0.0 1021751
14:00+5˚se71187100 0.0 1021746
17:00+5˚se71285100 0.0 1022663
20:00+4˚se71385100 0.0 1023647
6 december, sun
sun623:00+3˚se71285100 0.0 1023593
02:00+2˚se81283100 0.0 1024584
05:00+1˚se7138598 0.0 1024545
08:00se8128598 0.0 1024537
11:00+1˚se8128099 0.0 1024559
14:00+2˚se8137192 0.0 1024609
17:00se8147515 0.0 1023637
20:00−1˚se8157619 0.0 1023634